When you browse on this site, cookies collect data to enhance your experience and personalize the content and advertising you see.
Visit our Privacy Policy to learn more. By continuing to use the site, you agree to this use of cookies and data.
  • In Latvia
  • List of Countries
  • For 7 days
  • Water Temperature
  • Satellite Maps
  • Weather Map
  • Weather Widgets
  • user-avatar
    Login

    Hourly Weather Horw

    Today, 17 February, Sunday

    Time Temperature Precipitation Wind Pressure Humidity
    00:00 +5°C° 0 mm 2 mps 723 mmHg 53%
    01:00 +6°C° 0 mm 2 mps 723 mmHg 51%
    02:00 +6°C° 0 mm 2 mps 722 mmHg 52%
    03:00 +5°C° 0 mm 2 mps 722 mmHg 52%
    04:00 +5°C° 0 mm 2 mps 722 mmHg 53%
    05:00 +5°C° 0 mm 2 mps 722 mmHg 53%
    06:00 +4°C° 0 mm 2 mps 722 mmHg 52%
    07:00 +3°C° 0 mm 2 mps 722 mmHg 55%
    08:00 +5°C° 0 mm 2 mps 722 mmHg 57%
    09:00 +8°C° 0 mm 1 mps 722 mmHg 58%
    10:00 +10°C° 0 mm 1 mps 721 mmHg 59%
    11:00 +12°C° 0 mm 1 mps 721 mmHg 61%
    12:00 +13°C° 0 mm 1 mps 721 mmHg 62%
    13:00 +14°C° 0 mm 0 mps 721 mmHg 63%
    14:00 +13°C° 0 mm 0 mps 721 mmHg 64%
    15:00 +13°C° 0 mm 0 mps 720 mmHg 65%
    16:00 +13°C° 0 mm 0 mps 720 mmHg 67%
    17:00 +12°C° 0 mm 1 mps 720 mmHg 65%
    18:00 +10°C° 0 mm 1 mps 720 mmHg 64%
    19:00 +6°C° 0 mm 2 mps 720 mmHg 62%
    20:00 +6°C° 0 mm 2 mps 720 mmHg 60%
    21:00 +5°C° 0 mm 2 mps 720 mmHg 58%
    22:00 +5°C° 0 mm 2 mps 720 mmHg 57%
    23:00 +5°C° 0 mm 2 mps 720 mmHg 56%

    Tomorrow, 18 February, Monday

    Time Temperature Precipitation Wind Pressure Humidity
    00:00 +4°C° 0 mm 2 mps 720 mmHg 55%
    01:00 +4°C° 0 mm 2 mps 720 mmHg 54%
    02:00 +4°C° 0 mm 2 mps 720 mmHg 54%
    03:00 +4°C° 0 mm 2 mps 720 mmHg 54%
    04:00 +4°C° 0 mm 2 mps 720 mmHg 54%
    05:00 +4°C° 0 mm 2 mps 719 mmHg 54%
    06:00 +4°C° 0 mm 2 mps 719 mmHg 55%
    07:00 +3°C° 0 mm 2 mps 719 mmHg 55%
    08:00 +6°C° 0 mm 1 mps 719 mmHg 56%
    09:00 +8°C° 0 mm 1 mps 719 mmHg 58%
    10:00 +10°C° 0 mm 1 mps 719 mmHg 59%
    11:00 +11°C° 0 mm 1 mps 719 mmHg 59%
    12:00 +12°C° 0 mm 1 mps 718 mmHg 60%
    13:00 +13°C° 0 mm 1 mps 718 mmHg 60%
    14:00 +13°C° 0 mm 1 mps 718 mmHg 62%
    15:00 +13°C° 0 mm 1 mps 717 mmHg 64%
    16:00 +13°C° 0 mm 1 mps 717 mmHg 66%
    17:00 +11°C° 0 mm 1 mps 717 mmHg 67%
    18:00 +9°C° 0 mm 1 mps 717 mmHg 68%
    19:00 +7°C° 0 mm 1 mps 718 mmHg 68%
    20:00 +6°C° 0 mm 2 mps 718 mmHg 68%
    21:00 +5°C° 0 mm 2 mps 718 mmHg 67%
    22:00 +5°C° 0 mm 2 mps 718 mmHg 66%
    23:00 +5°C° 0 mm 2 mps 718 mmHg 66%

    Day after tomorrow, 19 February, Tuesday

    Time Temperature Precipitation Wind Pressure Humidity
    00:00 +4°C° 0 mm 2 mps 718 mmHg 65%
    01:00 +4°C° 0 mm 2 mps 718 mmHg 65%
    02:00 +4°C° 0 mm 2 mps 718 mmHg 65%
    03:00 +4°C° 0 mm 2 mps 718 mmHg 65%
    04:00 +3°C° 0 mm 2 mps 718 mmHg 65%
    05:00 +3°C° 0 mm 2 mps 718 mmHg 66%
    06:00 +3°C° 0 mm 2 mps 718 mmHg 66%
    07:00 +3°C° 0 mm 2 mps 718 mmHg 67%
    08:00 +5°C° 0 mm 1 mps 718 mmHg 66%
    09:00 +7°C° 0 mm 1 mps 718 mmHg 65%
    10:00 +9°C° 0 mm 1 mps 718 mmHg 64%
    11:00 +9°C° 0 mm 1 mps 718 mmHg 63%
    12:00 +10°C° 0 mm 1 mps 718 mmHg 62%
    13:00 +11°C° 0 mm 1 mps 718 mmHg 61%
    14:00 +11°C° 0 mm 1 mps 718 mmHg 63%
    15:00 +11°C° 0 mm 1 mps 718 mmHg 66%
    16:00 +10°C° 0 mm 1 mps 718 mmHg 69%
    17:00 +9°C° 0.1 mm 1 mps 718 mmHg 76%
    18:00 +7°C° 0.1 mm 1 mps 718 mmHg 82%
    19:00 +5°C° 0.1 mm 0 mps 719 mmHg 89%
    20:00 +4°C° 0 mm 0 mps 719 mmHg 89%
    21:00 +5°C° 0 mm 1 mps 719 mmHg 89%
    22:00 +4°C° 0 mm 1 mps 719 mmHg 89%
    23:00 +4°C° 0 mm 1 mps 720 mmHg 88%

    20 February, Wednesday

    Time Temperature Precipitation Wind Pressure Humidity
    00:00 +4°C° 0 mm 1 mps 720 mmHg 86%
    01:00 +4°C° 0 mm 1 mps 720 mmHg 85%
    02:00 +4°C° 0 mm 1 mps 719 mmHg 84%
    03:00 +3°C° 0 mm 1 mps 719 mmHg 83%
    04:00 +3°C° 0 mm 1 mps 719 mmHg 81%
    05:00 +3°C° 0 mm 1 mps 719 mmHg 81%
    06:00 +3°C° 0 mm 1 mps 719 mmHg 80%
    07:00 +3°C° 0 mm 1 mps 719 mmHg 79%
    08:00 +5°C° 0 mm 1 mps 720 mmHg 75%
    09:00 +5°C° 0 mm 0 mps 720 mmHg 71%
    10:00 +7°C° 0 mm 0 mps 720 mmHg 67%
    11:00 +8°C° 0 mm 0 mps 720 mmHg 66%
    12:00 +9°C° 0 mm 0 mps 720 mmHg 65%
    13:00 +11°C° 0 mm 1 mps 720 mmHg 64%
    14:00 +11°C° 0 mm 1 mps 720 mmHg 65%
    15:00 +11°C° 0 mm 1 mps 720 mmHg 67%
    16:00 +11°C° 0 mm 1 mps 720 mmHg 68%
    17:00 +9°C° 0 mm 1 mps 720 mmHg 73%
    18:00 +8°C° 0 mm 1 mps 720 mmHg 78%
    19:00 +6°C° 0 mm 1 mps 721 mmHg 83%
    20:00 +6°C° 0 mm 1 mps 721 mmHg 81%
    21:00 +5°C° 0 mm 1 mps 721 mmHg 79%
    22:00 +5°C° 0 mm 1 mps 722 mmHg 77%
    23:00 +5°C° 0 mm 1 mps 722 mmHg 75%

    21 February, Thursday

    Time Temperature Precipitation Wind Pressure Humidity
    00:00 +5°C° 0 mm 1 mps 722 mmHg 72%
    01:00 +5°C° 0 mm 1 mps 722 mmHg 70%
    02:00 +5°C° 0 mm 1 mps 722 mmHg 68%
    03:00 +4°C° 0 mm 1 mps 722 mmHg 66%
    04:00 +4°C° 0 mm 1 mps 722 mmHg 64%
    05:00 +4°C° 0 mm 1 mps 722 mmHg 63%
    06:00 +4°C° 0 mm 1 mps 722 mmHg 62%
    07:00 +4°C° 0 mm 1 mps 723 mmHg 60%
    08:00 +6°C° 0 mm 1 mps 723 mmHg 59%
    09:00 +7°C° 0 mm 0 mps 723 mmHg 58%
    10:00 +9°C° 0 mm 0 mps 724 mmHg 56%
    11:00 +10°C° 0 mm 0 mps 723 mmHg 56%
    12:00 +11°C° 0 mm 0 mps 723 mmHg 56%
    13:00 +12°C° 0 mm 0 mps 723 mmHg 56%
    14:00 +12°C° 0 mm 0 mps 723 mmHg 57%
    15:00 +11°C° 0 mm 0 mps 723 mmHg 58%
    16:00 +11°C° 0 mm 0 mps 723 mmHg 59%
    17:00 +10°C° 0 mm 1 mps 723 mmHg 63%
    18:00 +9°C° 0 mm 1 mps 723 mmHg 67%
    19:00 +7°C° 0 mm 1 mps 723 mmHg 72%
    20:00 +7°C° 0 mm 1 mps 724 mmHg 70%
    21:00 +6°C° 0 mm 1 mps 724 mmHg 69%
    22:00 +6°C° 0 mm 1 mps 724 mmHg 68%
    23:00 +6°C° 0 mm 1 mps 724 mmHg 67%

    22 February, Friday

    Time Temperature Precipitation Wind Pressure Humidity
    00:00 +6°C° 0 mm 1 mps 724 mmHg 66%
    01:00 +6°C° 0 mm 1 mps 724 mmHg 66%
    02:00 +6°C° 0 mm 1 mps 724 mmHg 67%
    03:00 +5°C° 0 mm 1 mps 724 mmHg 68%
    04:00 +5°C° 0 mm 1 mps 724 mmHg 69%
    05:00 +5°C° 0 mm 1 mps 724 mmHg 69%
    06:00 +5°C° 0 mm 1 mps 724 mmHg 70%
    07:00 +5°C° 0 mm 1 mps 724 mmHg 70%
    08:00 +6°C° 0 mm 1 mps 725 mmHg 68%
    09:00 +7°C° 0 mm 1 mps 725 mmHg 65%
    10:00 +8°C° 0 mm 0 mps 725 mmHg 63%
    11:00 +10°C° 0 mm 1 mps 725 mmHg 62%
    12:00 +11°C° 0 mm 1 mps 725 mmHg 61%
    13:00 +12°C° 0 mm 2 mps 725 mmHg 60%
    14:00 +12°C° 0 mm 2 mps 725 mmHg 62%
    15:00 +12°C° 0 mm 2 mps 725 mmHg 64%
    16:00 +11°C° 0 mm 3 mps 725 mmHg 66%
    17:00 +9°C° 0 mm 2 mps 725 mmHg 70%
    18:00 +8°C° 0 mm 2 mps 726 mmHg 75%
    19:00 +6°C° 0 mm 2 mps 726 mmHg 79%
    20:00 +6°C° 0 mm 2 mps 726 mmHg 77%
    21:00 +6°C° 0 mm 2 mps 726 mmHg 75%
    22:00 +5°C° 0 mm 2 mps 726 mmHg 73%
    23:00 +5°C° 0 mm 2 mps 727 mmHg 72%
    Show more